Voltar ao catálogo

STARLINK-35447

AtivoComunicaçõesVLEO
NORAD 66589·PAYLOAD·🇺🇸 United States

Lançado Nov 22, 2025 de Cape Canaveral Space Force Station

Loading…

Próximas Passagens (próximas 24 horas)

TLE

AtualizadoSource: CelesTrak SupGP

Época: Sep 15, 2026, 02:40 UTC

1 66589C 25270B   26258.11159722 -.00016209  00000+0 -58699-3 0  2588
2 66589  43.0004  66.4215 0001513 268.7909 161.1420 15.27591053    16

Acompanhe STARLINK-35447 em tempo real com AllMySat

Download on the App Store